星链-30895 (STARLINK-30895 )

导读

STARLINK-30895是美国SpaceX公司星链星座的一颗低轨通信卫星,于北京时间2023年11月22日发射入轨。作为星链互联网星座的组成部分,它运行在近地轨道,旨在为全球尤其是基础设施匮乏地区提供高速低延迟宽带互联网服务。星链系统配备激光星间链路技术,可实现高速数据传输,助力完成全球网络覆盖,支撑远程通信、应急联网等多元场景应用。

Basic Information
目录编号:
58418
目录名称:
STARLINK-30895
国际标识:
2023-180S
轨道中心:
EARTH
卫星名称:
星链-30895
卫星全名:
星链-30895 (STARLINK-30895 )
卫星状态:
在轨 (已飞行1017 天)
发射日期:
2023-11-22 UTC
国别 :
美国 (US)
星等 :
--
Orbit Information
数据来源 国际轨道数据 AOE轨道数据
星历时间 2026-09-04T08:45:24+0800
9小时前
查看轨道信息
2026-08-30T23:00:00+0800
4天前
查看轨道信息
半长轴 6856.016km 6857.305km
偏心率 0.0003232 0.0002596
轨道倾角 43.000° 43.000°
近地点辐角 254.723° 238.569°
升交点赤经 125.147° 150.098°
平近点角 105.326° 315.542°
近地点 475.663km 477.387km
远地点 480.095km 480.949km
周期 94.160分钟 94.187分钟
每日圈数 15.293084 15.288771
Detailed Information
固有亮度:
5
最大亮度:
0.3
卫星平台:
Starlink v2.0 mini
覆盖范围:
全球
运营商:
太空探索技术公司
运营商所在国:
美国
制造商(研发单位):
太空探索技术公司
制造商所在国:
美国
使用方式:
暂无
Satellite Introduction
星链(Starlink)计划是由太空探索技术公司(SpaceX)提出的一个巨型低轨卫星互联网星座项目,计划在2019年至2024年间在太空搭建由约1.2万颗卫星组成的“星链”网络,其中1584颗将部署在地球上空550千米处的近地轨道,并从2020年开始工作。该卫星仍在工作。
2D Orbit Map
3D Orbit Map
Orbit Altitude Analysis Chart
Orbit Inclination Analysis Chart
Orbit Comprehensive Analysis Chart
View Comprehensive Chart